[[{"header":{"parameterUnit":"m.s-1","parameterCategory":1,"la1":30.2991,"la2":30.254,"lo1":-89.0895,"lo2":-89.0444,"dy":0.0017,"dx":0.0017,"nx":28,"ny":28,"refTime":"2023-10-26T21:00:00:Z","depth":0,"parameterNumber":2,"parameterNumberName":"U-component_of_WINDS"},"data":[0,0,0,0,0,0,0,0,0,0,0,0,0,0,0,0,0,0,0,0,0,0,0,0,0,0,0,0,0,0,0,0,0,0,0,0,0,0,0,0,0,0,0,0,0,0,0,0,0,0,0,0,0,0,0,0,0,0,-3.7056,-3.7057,0,-3.7118,-3.7119,-3.7119,-3.7074,-3.7072,-3.707,-3.7068,-3.7129,-3.7132,-3.7136,0,0,0,0,0,0,0,0,0,0,0,0,0,-3.6897,-3.69,-3.7056,-3.7057,-3.7057,-3.7118,-3.7119,-3.712,-3.7074,-3.7071,-3.7069,-3.7067,-3.7128,-3.7132,-3.7136,0,0,0,0,0,0,0,0,0,0,0,0,0,-3.6963,-3.6901,-3.7056,-3.7042,-3.7041,-3.7118,-3.7119,-3.712,-3.7074,-3.7071,-3.7068,-3.7066,-3.7126,-3.7131,-3.7136,-3.7229,0,0,-3.7152,-3.7155,0,0,0,0,0,0,0,0,-3.696,-3.6969,-3.7043,-3.7043,-3.7042,-3.7085,-3.7085,-3.7156,-3.7075,-3.7062,-3.7068,-3.7064,-3.7116,-3.7122,-3.714,-3.7232,-3.7234,-3.7153,-3.7156,-3.7158,-3.716,0,0,0,0,0,0,0,-3.6955,-3.6966,-3.708,-3.7044,-3.7044,-3.7033,-3.7039,-3.7098,-3.7105,-3.7063,-3.706,-3.7068,-3.7116,-3.7135,-3.7141,-3.7235,-3.7153,-3.7157,-3.7161,-3.7163,-3.7408,-3.7411,0,0,0,0,0,0,-3.6952,-3.6963,-3.7078,-3.7082,-3.6993,-3.7038,-3.7045,-3.7074,-3.7104,-3.7106,-3.707,-3.7065,-3.7128,-3.7135,-3.7143,-3.7255,-3.7158,-3.7163,-3.7166,-3.7405,-3.7409,-3.7413,0,0,0,0,0,0,-3.6949,-3.6963,-3.7076,-3.7022,-3.7035,-3.7044,-3.7078,-3.7077,-3.7097,-3.711,-3.7111,-3.7089,-3.7126,-3.7136,-3.7209,-3.7256,-3.7166,-3.717,-3.7401,-3.7406,-3.7411,-3.7477,0,0,0,0,0,0,-3.6944,-3.6962,-3.6997,-3.7023,-3.7038,-3.714,-3.708,-3.7081,-3.7106,-3.7101,-3.7128,-3.713,-3.7124,-3.7201,-3.7214,-3.7262,-3.7174,-3.7397,-3.7403,-3.7409,-3.7471,-3.7484,-3.7495,0,0,0,0,0,-3.6939,-3.7012,-3.6999,-3.7013,-3.7082,-3.7143,-3.7152,-3.7145,-3.711,-3.7146,-3.7155,-3.7129,-3.725,-3.7209,-3.7223,-3.7273,-3.7393,-3.7401,-3.7409,-3.7465,-3.7481,-3.7495,0,0,0,0,0,0,-3.6989,-3.7015,-3.7001,-3.7084,-3.7112,-3.7135,-3.7179,-3.7162,-3.7199,-3.7191,-3.7181,-3.7188,-3.7264,-3.7276,-3.723,-3.7365,-3.7316,-3.7327,-3.7354,-3.737,-3.7382,-3.7376,-3.7179,0,0,0,0,0,-3.7011,-3.7058,-3.7078,-3.715,-3.7165,-3.717,-3.7196,-3.7189,-3.7217,-3.7228,-3.7242,-3.7269,-3.7313,-3.7342,-3.7384,-3.7473,-3.7479,-3.7515,-3.7527,-3.7537,-3.7546,-3.7596,-3.7612,-3.7438,-3.7437,-3.7437,0,0,-3.7054,-3.7074,-3.7104,-3.7161,-3.7181,-3.7231,-3.718,-3.7234,-3.727,-3.7235,-3.7305,-3.7317,-3.7347,-3.7429,-3.7466,-3.7442,-3.7596,-3.7547,-3.7555,-3.7558,-3.7605,-3.7622,-3.7637,-3.7443,-3.7442,-3.7441,0,0,-3.7158,-3.7178,-3.7241,-3.7264,-3.7296,-3.73,-3.7316,-3.7342,-3.7349,-3.742,-3.7395,-3.7439,-3.7515,-3.7538,-3.756,-3.7678,-3.7656,-3.7692,-3.7755,-3.7803,-3.7817,-3.7829,-3.7871,-3.7887,-3.7701,-3.7701,-3.7701,0,-3.7207,-3.7281,-3.7275,-3.7332,-3.7358,-3.7332,-3.7395,-3.7417,-3.7462,-3.748,-3.7453,-3.755,-3.7568,-3.7656,-3.7685,-3.7704,-3.7721,-3.7687,-3.7816,-3.7828,-3.7839,-3.7879,-3.7895,-3.7705,-3.7705,-3.7704,-3.7704,0,-3.7341,-3.7393,-3.744,-3.7485,-3.7517,-3.7577,-3.758,-3.7613,-3.7605,-3.7611,-3.7685,-3.7707,-3.7753,-3.7773,-3.7764,-3.7861,-3.7845,-3.7817,-3.7767,-3.786,-3.7898,-3.7913,-3.7711,-3.771,-3.7709,-3.7707,0,0,-3.7474,-3.7519,-3.7536,-3.7558,-3.7594,-3.7634,-3.7694,-3.774,-3.7769,-3.7802,-3.7852,-3.7919,-3.7894,-3.7919,-3.7913,-3.7956,-3.805,-3.7923,-3.7924,-3.7946,-3.8158,-3.8178,-3.8196,-3.8036,-3.8039,-3.8042,-3.8155,0,-3.758,-3.7685,-3.7683,-3.7781,-3.7829,-3.7807,-3.7859,-3.7887,-3.7897,-3.7939,-3.7949,-3.7997,-3.7961,-3.7976,-3.8018,-3.8029,-3.8092,-3.8021,-3.8082,-3.8084,-3.8074,-3.8215,-3.8236,-3.8342,-3.817,-3.8173,-3.8174,0,-3.7717,-3.7756,-3.7859,-3.789,-3.7911,-3.7958,-3.8002,-3.8043,-3.8075,-3.8079,-3.811,-3.8098,-3.8159,-3.811,-3.8195,-3.8147,-3.8172,-3.8182,-3.8186,-3.819,-3.8134,-3.8222,-3.8375,-3.8391,-3.8197,-3.8196,-3.8194,0,-3.7804,-3.7883,-3.7955,-3.7974,-3.8012,-3.8046,-3.8064,-3.8093,-3.8123,-3.8162,-3.8181,-3.8226,-3.825,-3.8286,-3.8287,-3.8251,-3.8374,-3.8324,-3.8378,-3.8378,-3.8403,-3.8401,-3.8561,-3.8422,-3.8422,-3.8421,-3.8421,0,-3.7921,-3.7985,-3.7995,-3.8039,-3.811,-3.8108,-3.8179,-3.8193,-3.8221,-3.8268,-3.8251,-3.8296,-3.8295,-3.8341,-3.8343,-3.8413,-3.8425,-3.8429,-3.8429,-3.843,-3.8429,-3.8445,-3.8437,-3.8426,-3.8425,-3.8424,-3.8423,0,-3.8029,-3.8038,-3.8116,-3.8147,-3.8157,-3.8208,-3.8235,-3.8278,-3.8287,-3.8347,-3.8361,-3.8375,-3.8428,-3.8434,-3.8495,-3.8496,-3.8582,-3.8574,-3.8571,-3.8569,-3.8623,-3.8618,-3.8798,-3.8822,-3.8668,-3.8669,-3.8671,0,-3.8103,-3.8151,-3.819,-3.8221,-3.8241,-3.829,-3.8321,-3.8323,-3.8355,-3.8398,-3.8435,-3.8487,-3.8528,-3.8615,-3.863,-3.8678,-3.867,-3.8731,-3.8677,-3.8678,-3.8671,-3.8667,-3.8672,-3.874,-3.8742,-3.8743,-3.8744,0,-3.8232,-3.8235,-3.828,-3.8328,-3.8366,-3.8403,-3.8438,-3.8464,-3.8471,-3.8508,-3.8563,-3.8596,-3.866,-3.8712,-3.876,-3.8778,-3.8762,-3.8762,-3.8776,-3.8777,-3.8773,-3.8776,-3.8598,-3.8756,-3.8755,-3.8754,-3.8754,-3.8753,-3.8324,-3.8367,-3.8402,-3.8453,-3.8481,-3.8515,-3.8557,-3.8573,-3.8619,-3.8672,-3.8671,-3.8732,-3.8765,-3.8828,-3.885,-3.8898,-3.8878,-3.89,-3.8905,-3.891,-3.8915,-3.8768,-3.8907,-3.8906,-3.8906,-3.8906,-3.8906,0,-3.8452,-3.8475,-3.8522,-3.8573,-3.8614,-3.8599,-3.8638,-3.8673,-3.8727,-3.8761,-3.8803,-3.8867,-3.8919,-3.894,-3.8991,-3.9025,-3.9019,-3.9038,-3.9035,-3.9039,-3.893,-3.8912,-3.9042,-3.9042,-3.9042,-3.9042,-3.9042,-3.9042,-3.8524,-3.8596,-3.8604,-3.8691,-3.8712,-3.8773,-3.8796,-3.8828,-3.8855,-3.8928,-3.8971,-3.8986,-3.9015,-3.9068,-3.9115,-3.912,-3.9139,-3.9161,-3.9163,-3.906,-3.9047,-3.9033,-3.9016,-3.9166,-3.9166,-3.9268,-3.9269,-3.9269]},{"header":{"parameterUnit":"m.s-1","parameterCategory":1,"la1":30.2991,"la2":30.254,"lo1":-89.0895,"lo2":-89.0444,"dy":0.0017,"dx":0.0017,"nx":28,"ny":28,"refTime":"2023-10-26T21:00:00:Z","depth":0,"parameterNumber":3,"parameterNumberName":"V-component_of_WINDS"},"data":[0,0,0,0,0,0,0,0,0,0,0,0,0,0,0,0,0,0,0,0,0,0,0,0,0,0,0,0,0,0,0,0,0,0,0,0,0,0,0,0,0,0,0,0,0,0,0,0,0,0,0,0,0,0,0,0,0,0,1.7849,1.785,0,1.7918,1.7918,1.7919,1.7904,1.7902,1.7901,1.79,1.7968,1.7971,1.7974,0,0,0,0,0,0,0,0,0,0,0,0,0,1.7705,1.7708,1.7849,1.785,1.785,1.7917,1.7918,1.7919,1.7904,1.7902,1.7901,1.7899,1.7967,1.7971,1.7975,0,0,0,0,0,0,0,0,0,0,0,0,0,1.777,1.7709,1.7849,1.7851,1.7852,1.7917,1.7918,1.792,1.7904,1.7902,1.79,1.7898,1.7966,1.7971,1.7975,1.8042,0,0,1.7989,1.7991,0,0,0,0,0,0,0,0,1.7767,1.7775,1.785,1.7851,1.7852,1.79,1.7893,1.7961,1.7905,1.7884,1.79,1.7897,1.7947,1.7953,1.797,1.8045,1.8048,1.7989,1.7992,1.7994,1.7995,0,0,0,0,0,0,0,1.7762,1.7772,1.7876,1.7851,1.7852,1.7849,1.7856,1.7906,1.7926,1.7886,1.7885,1.7893,1.7947,1.7966,1.7972,1.8049,1.7989,1.7993,1.7996,1.7998,1.8188,1.819,0,0,0,0,0,0,1.7757,1.7769,1.7874,1.7878,1.7804,1.7853,1.7861,1.7887,1.7925,1.7929,1.7895,1.7892,1.7959,1.7966,1.7974,1.8058,1.7994,1.7998,1.8001,1.8185,1.8188,1.8191,0,0,0,0,0,0,1.7754,1.7766,1.7871,1.7823,1.7836,1.7858,1.7886,1.7889,1.7907,1.7932,1.7935,1.791,1.7958,1.7968,1.8027,1.806,1.8,1.8005,1.8183,1.8186,1.8189,1.8225,0,0,0,0,0,0,1.775,1.7765,1.779,1.7824,1.7839,1.7922,1.7888,1.7892,1.7916,1.7913,1.7947,1.7951,1.7957,1.802,1.8031,1.8065,1.8008,1.818,1.8184,1.8188,1.822,1.8229,1.8236,0,0,0,0,0,1.7744,1.7796,1.7791,1.7804,1.7871,1.7924,1.7932,1.7939,1.7918,1.7944,1.7961,1.795,1.8055,1.8026,1.8038,1.8074,1.8178,1.8183,1.8188,1.8217,1.8227,1.8236,0,0,0,0,0,0,1.7763,1.78,1.7796,1.7859,1.7889,1.7921,1.7953,1.7949,1.7984,1.798,1.7986,1.7994,1.8055,1.807,1.8038,1.8144,1.8113,1.8121,1.8131,1.8141,1.8148,1.8144,1.8012,0,0,0,0,0,1.7775,1.7815,1.7845,1.7899,1.7914,1.7932,1.7955,1.7958,1.7988,1.8,1.8021,1.805,1.8091,1.8116,1.8154,1.8223,1.8232,1.8254,1.8262,1.8268,1.8275,1.8316,1.8328,1.8208,1.8208,1.8208,0,0,1.78,1.7825,1.7849,1.7903,1.7926,1.7969,1.7942,1.7986,1.8018,1.8007,1.8064,1.8081,1.8115,1.818,1.821,1.8195,1.8311,1.8275,1.828,1.8283,1.8323,1.8334,1.8344,1.8211,1.8211,1.821,0,0,1.7866,1.7888,1.7937,1.7962,1.7998,1.801,1.8022,1.8056,1.8068,1.8126,1.8119,1.8157,1.8225,1.8251,1.8273,1.8355,1.8347,1.8367,1.8407,1.8447,1.8456,1.8465,1.8496,1.8507,1.8373,1.8374,1.8374,0,1.7891,1.7955,1.7962,1.801,1.8035,1.8028,1.8079,1.8102,1.8149,1.8167,1.815,1.8239,1.826,1.8333,1.8354,1.8371,1.8386,1.8362,1.8454,1.8463,1.8471,1.8501,1.8513,1.8376,1.8376,1.8375,1.8375,0,1.7986,1.803,1.8066,1.8113,1.8142,1.8191,1.8207,1.8236,1.8237,1.8252,1.8313,1.834,1.8386,1.8403,1.8404,1.8477,1.8468,1.8453,1.8422,1.8485,1.8513,1.8525,1.8379,1.8378,1.8378,1.8377,0,0,1.8063,1.8118,1.8131,1.8154,1.8196,1.823,1.828,1.8326,1.8352,1.8385,1.8428,1.8488,1.8476,1.8501,1.8505,1.854,1.8607,1.8522,1.8523,1.8538,1.8693,1.8705,1.8718,1.8603,1.8605,1.8607,1.8691,0,1.8135,1.8223,1.8233,1.8312,1.8355,1.8352,1.8395,1.8426,1.8442,1.8482,1.8499,1.8542,1.8522,1.8538,1.8572,1.8592,1.8639,1.8585,1.8644,1.8646,1.8636,1.8733,1.8744,1.8822,1.8702,1.8704,1.8705,0,1.8229,1.8268,1.8352,1.8392,1.841,1.8449,1.8494,1.8531,1.8567,1.8577,1.8607,1.8608,1.8661,1.863,1.8704,1.8668,1.8693,1.8707,1.871,1.8716,1.868,1.8743,1.8847,1.886,1.8723,1.8721,1.872,0,1.828,1.8353,1.8414,1.8433,1.8481,1.8509,1.853,1.8564,1.8593,1.8632,1.8651,1.8696,1.872,1.8756,1.8769,1.8744,1.8844,1.8813,1.8855,1.8855,1.8876,1.8874,1.8987,1.889,1.889,1.889,1.8889,0,1.836,1.8411,1.8438,1.8475,1.8534,1.8547,1.8605,1.8625,1.8656,1.8698,1.8698,1.8737,1.8753,1.8796,1.8807,1.8869,1.8879,1.8889,1.8892,1.889,1.8889,1.8906,1.8902,1.8893,1.8892,1.8892,1.8891,0,1.8426,1.8445,1.8512,1.8553,1.8564,1.8606,1.8642,1.8679,1.8695,1.8749,1.8762,1.8789,1.884,1.8857,1.8918,1.8926,1.8998,1.8995,1.8986,1.8987,1.9029,1.9025,1.9158,1.9177,1.9066,1.9067,1.9068,0,1.8475,1.8516,1.8562,1.8591,1.8614,1.866,1.869,1.8705,1.8736,1.8783,1.8815,1.8866,1.8907,1.8989,1.9014,1.9061,1.906,1.9104,1.9067,1.9066,1.9064,1.9061,1.9067,1.911,1.9112,1.9112,1.9113,0,1.8562,1.8571,1.8614,1.8663,1.8699,1.8737,1.8774,1.8798,1.8819,1.8854,1.8907,1.894,1.9004,1.9055,1.9105,1.9127,1.9125,1.9125,1.9138,1.9136,1.913,1.9136,1.9006,1.9121,1.9121,1.912,1.912,1.9119,1.8623,1.866,1.87,1.8749,1.878,1.8815,1.8853,1.8877,1.8921,1.8975,1.8982,1.9039,1.9079,1.9145,1.9171,1.9217,1.9205,1.9222,1.9227,1.9231,1.9236,1.9123,1.9225,1.9225,1.9225,1.9225,1.9225,0,1.8712,1.8738,1.8784,1.8837,1.8877,1.8873,1.8915,1.8948,1.8999,1.9036,1.9079,1.9141,1.9192,1.9223,1.9274,1.9306,1.9306,1.9319,1.9317,1.9323,1.9242,1.9227,1.9318,1.9318,1.9318,1.9318,1.9318,1.9318,1.8762,1.8826,1.8841,1.8921,1.8947,1.9004,1.9029,1.9063,1.9093,1.9164,1.9207,1.9227,1.9262,1.9317,1.9365,1.9373,1.9392,1.9406,1.9413,1.9337,1.9328,1.9319,1.9305,1.941,1.941,1.949,1.9491,1.9492]}]]